AXB9407 BIKF-LGTS

Flight info

Callsign AXB9407
Flight time N/A
Altitude 37000
Route OSKUM3C OSKUM DCT PEMOS/N0452F410 DCT PEPIN DCT GELBA DCT EKERN DCT POVEL DCT GALMA DCT AKOSI DCT PODET DCT ZAG DCT MARIL DCT EDALA DCT NILKU DCT AKIKA DCT MAVAR DCT ALIKO
Aircraft B38M/M-SDE1FGHILORVWXY/HB1

Departure

Time N/A
Airport Keflavik International Airport (BIKF)

Arrival

Time 2026-04-30 20:19
Airport Thessaloniki Macedonia International Airport (LGTS)
Time Latitude Longitude Altitude Speed Heading
2026-04-30 19:53 41.53748 20.82097 41245 ft 500 kts 123°
2026-04-30 19:53 41.50117 20.90022 41262 ft 500 kts 123°
2026-04-30 19:54 41.46485 20.97928 41222 ft 500 kts 123°
2026-04-30 19:54 41.42833 21.05856 41252 ft 501 kts 123°
2026-04-30 19:55 41.39182 21.13762 41247 ft 501 kts 123°
2026-04-30 19:55 41.35546 21.21614 40999 ft 500 kts 124°
2026-04-30 19:56 41.33691 21.25610 39762 ft 513 kts 124°
2026-04-30 19:56 41.31830 21.29619 39358 ft 505 kts 124°
2026-04-30 19:56 41.29987 21.33579 38805 ft 501 kts 124°
2026-04-30 19:56 41.28153 21.37516 38007 ft 501 kts 125°
2026-04-30 19:57 41.26312 21.41462 37176 ft 502 kts 125°
2026-04-30 19:57 41.24475 21.45396 36217 ft 501 kts 125°
2026-04-30 19:57 41.22630 21.49342 35116 ft 503 kts 126°
2026-04-30 19:57 41.20801 21.53249 33989 ft 506 kts 126°
2026-04-30 19:58 41.18934 21.57229 32655 ft 509 kts 126°
2026-04-30 19:58 41.17051 21.61243 31404 ft 511 kts 127°
2026-04-30 19:58 41.15177 21.65231 30391 ft 507 kts 127°
2026-04-30 19:58 41.13321 21.69177 29305 ft 500 kts 127°
2026-04-30 19:59 41.11486 21.73073 28362 ft 493 kts 127°
2026-04-30 19:59 41.09686 21.76888 27482 ft 485 kts 127°
2026-04-30 19:59 41.06158 21.84351 25595 ft 475 kts 127°
2026-04-30 20:00 41.04418 21.88024 24979 ft 468 kts 126°
2026-04-30 20:00 41.02693 21.91663 24297 ft 465 kts 126°
2026-04-30 20:00 41.00971 21.95291 23588 ft 463 kts 126°
2026-04-30 20:00 40.99257 21.98898 22813 ft 460 kts 126°
2026-04-30 20:01 40.95876 22.05999 21511 ft 450 kts 126°
2026-04-30 20:01 40.94233 22.09443 20877 ft 446 kts 126°
2026-04-30 20:01 40.92585 22.12897 20260 ft 441 kts 126°
2026-04-30 20:02 40.89333 22.19696 19055 ft 432 kts 126°
2026-04-30 20:02 40.87735 22.23032 18486 ft 428 kts 126°
2026-04-30 20:03 40.84594 22.29581 17266 ft 418 kts 125°
2026-04-30 20:03 40.83044 22.32807 16717 ft 413 kts 125°
2026-04-30 20:03 40.81514 22.35991 16174 ft 407 kts 125°
2026-04-30 20:03 40.80003 22.39130 15653 ft 403 kts 125°
2026-04-30 20:04 40.78509 22.42231 15123 ft 398 kts 125°
2026-04-30 20:04 40.77026 22.45303 14590 ft 394 kts 125°
2026-04-30 20:04 40.75553 22.48348 14041 ft 392 kts 125°
2026-04-30 20:05 40.72655 22.54339 12988 ft 382 kts 125°
2026-04-30 20:05 40.71235 22.57272 12497 ft 377 kts 125°
2026-04-30 20:05 40.68456 22.63004 11434 ft 370 kts 124°
2026-04-30 20:06 40.67064 22.65827 11088 ft 360 kts 128°
2026-04-30 20:06 40.65307 22.68023 10866 ft 341 kts 151°
2026-04-30 20:06 40.63265 22.69476 10735 ft 326 kts 155°
2026-04-30 20:06 40.61304 22.70835 10591 ft 309 kts 156°
2026-04-30 20:07 40.59437 22.72112 10438 ft 295 kts 156°
2026-04-30 20:07 40.57665 22.73314 10291 ft 286 kts 156°
2026-04-30 20:07 40.54178 22.75669 9721 ft 279 kts 156°
2026-04-30 20:08 40.52452 22.76833 9348 ft 279 kts 155°
2026-04-30 20:08 40.50727 22.77995 9022 ft 277 kts 155°
2026-04-30 20:08 40.49014 22.79147 8696 ft 275 kts 155°
2026-04-30 20:08 40.47315 22.80289 8392 ft 273 kts 155°
2026-04-30 20:09 40.45628 22.81422 8084 ft 272 kts 156°
2026-04-30 20:09 40.43925 22.82566 7771 ft 277 kts 155°
2026-04-30 20:09 40.40450 22.84897 7124 ft 281 kts 154°
2026-04-30 20:10 40.36979 22.87227 6463 ft 279 kts 153°
2026-04-30 20:10 40.35251 22.88385 6117 ft 278 kts 153°
2026-04-30 20:10 40.33554 22.89521 5798 ft 277 kts 153°
2026-04-30 20:11 40.30144 22.91813 5168 ft 273 kts 149°
2026-04-30 20:11 40.28767 22.93438 4904 ft 264 kts 120°
2026-04-30 20:11 40.28153 22.95605 4732 ft 247 kts 92°
2026-04-30 20:12 40.28526 22.99807 4477 ft 223 kts 73°
2026-04-30 20:12 40.28951 23.01678 4260 ft 205 kts 53°
2026-04-30 20:12 40.29907 23.02862 4105 ft 182 kts 23°
2026-04-30 20:13 40.31064 23.03207 3997 ft 163 kts 358°
2026-04-30 20:13 40.32144 23.03039 3894 ft 150 kts 351°
2026-04-30 20:13 40.33137 23.02819 3832 ft 141 kts 351°
2026-04-30 20:13 40.34091 23.02586 3724 ft 138 kts 350°
2026-04-30 20:14 40.35029 23.02339 3635 ft 137 kts 349°
2026-04-30 20:14 40.35646 23.02168 3574 ft 137 kts 349°
2026-04-30 20:14 40.36874 23.01817 3501 ft 135 kts 349°
2026-04-30 20:14 40.37794 23.01545 3378 ft 135 kts 349°
2026-04-30 20:15 40.38707 23.01270 3153 ft 134 kts 349°
2026-04-30 20:15 40.39611 23.00995 2878 ft 132 kts 348°
2026-04-30 20:15 40.40211 23.00810 2744 ft 130 kts 347°
2026-04-30 20:15 40.41326 23.00463 2441 ft 119 kts 349°
2026-04-30 20:16 40.41842 23.00304 2278 ft 111 kts 349°
2026-04-30 20:16 40.42574 23.00077 2036 ft 105 kts 348°
2026-04-30 20:16 40.43273 22.99855 1818 ft 100 kts 349°
2026-04-30 20:16 40.43964 22.99652 1781 ft 103 kts 347°
2026-04-30 20:17 40.44652 22.99417 1674 ft 103 kts 347°
2026-04-30 20:17 40.45347 22.99195 1483 ft 103 kts 347°
2026-04-30 20:17 40.46041 22.98980 1303 ft 103 kts 347°
2026-04-30 20:17 40.46729 22.98745 1181 ft 104 kts 347°
2026-04-30 20:18 40.47445 22.98537 1034 ft 107 kts 348°
2026-04-30 20:18 40.48188 22.98324 847 ft 110 kts 346°
2026-04-30 20:18 40.48926 22.98071 664 ft 111 kts 344°
2026-04-30 20:18 40.49674 22.97816 440 ft 109 kts 344°
2026-04-30 20:19 40.50403 22.97605 218 ft 106 kts 342°
2026-04-30 20:19 40.51157 22.97359 62 ft 118 kts 343°
2026-04-30 20:19 40.51851 22.97151 45 ft 87 kts 343°
2026-04-30 20:19 40.52330 22.96981 30 ft 43 kts 346°
2026-04-30 20:20 40.52493 22.96932 31 ft 25 kts 347°
2026-04-30 20:20 40.52664 22.96905 32 ft 18 kts 32°
2026-04-30 20:20 40.52690 22.97020 32 ft 10 kts 106°
2026-04-30 20:20 40.52622 22.97074 31 ft 14 kts 168°
2026-04-30 20:21 40.52572 22.97113 31 ft 8 kts 95°
2026-04-30 20:21 40.52567 22.97205 31 ft 10 kts 86°
2026-04-30 20:21 40.52575 22.97298 31 ft 9 kts 89°
2026-04-30 20:21 40.52582 22.97338 31 ft 4 kts 56°
2026-04-30 20:22 40.52584 22.97341 31 ft 0 kts 47°